Torna al catalogo

STARLINK-2253

AttivoComunicazioniVLEO
NORAD 48596·PAYLOAD·🇺🇸 United States

Lanciato May 15, 2021 da Cape Canaveral Space Force Station

Loading…

Prossimi Passaggi (prossime 24 ore)

TLE

AggiornatoSource: CelesTrak SupGP

Epoca: Sep 14, 2026, 21:52 UTC

1 48596C 21041AV  26257.91159722 -.00025307  00000+0 -81377-3 0  2572
2 48596  53.1605 338.9532 0001105  88.4111 318.7640 15.31716823    14

Traccia STARLINK-2253 in tempo reale con AllMySat

Download on the App Store